Location: Bailleul
(50.3375°N, 2.8513°E)
Time: 04:36:24
(UTC+00:00)

IRIDIUM 106 - Pass Details

Date: 19 April 2021
Orbit: 776 x 779 km, 86.4° (Epoch: 09 May)

Event Time Altitude Azimuth Distance (km) Brightness Sun altitude
Exits shadow 20:42:23 - 189° (S) 2,590 6.7 -16.2°
Reaches altitude 10° 20:43:03 10° 190° (S) 2,326 6.5 -16.3°
Maximum altitude 20:48:16 74° 275° (W) 813 4.5 -16.9°
Drops below altitude 10° 20:53:31 10° 1° (N) 2,342 7.4 -17.5°
Sets 20:55:53 0° 3° (N) 3,274 8.2 -17.7°
